Skip Page Navigation
NASA JPL Caltech
NASA Logo - Jet Propulsion Laboratory + View the NASA Portal
+ Center for Near-Earth Object Studies
JPL Home Earth Solar System Stars & Galaxies Technology
JPL Solar System Dynamics
BODIES ORBITS EPHEMERIDES TOOLS PHYSICAL DATA DISCOVERY FAQ SITE MAP
IMPORTANT: The SSD Announcement email list is now available. Major changes are coming in the near future, including possible hostname and/or URL changes. To be notified of such changes, subscribe to this email list.

Please visit this page for more details.


JPL Small-Body Database Browser
Search: [ help ]  
351578 (2005 UB317)
Classification: Main-belt Asteroid          SPK-ID: 2351578
Ephemeris | Orbit Diagram | Orbital Elements | Mission Design | Physical Parameters | Discovery Circumstances | Close-Approach Data ]

[ show orbit diagram ]
Orbital Elements at Epoch 2458600.5 (2019-Apr-27.0) TDB
Reference: JPL 9 (heliocentric ecliptic J2000)
 Element Value Uncertainty (1-sigma)   Units 
e .1173687516091657 9.3396e-08  
a 3.182791198891482 4.425e-08 au
q 2.809230969244949 2.8167e-07 au
i 14.29923462269002 7.1128e-06 deg
node 336.6333052234341 2.4087e-05 deg
peri 29.64632490361364 3.8196e-05 deg
M 120.588551633148 2.6687e-05 deg
tp 2457905.772919909402
(2017-Jun-01.27291991)
0.0001522 TDB
period 2074.0090617679
5.68
4.3252e-05
1.184e-07
d
yr
n .1735768693764208 3.6198e-09 deg/d
Q 3.556351428538016 4.9444e-08 au
  Orbit Determination Parameters
   # obs. used (total)      178  
   data-arc span      4940 days (13.52 yr)  
   first obs. used      2005-07-28  
   last obs. used      2019-02-05  
   planetary ephem.      DE431  
   SB-pert. ephem.      SB431-N16  
   condition code      0  
   norm. resid. RMS      .56514  
   source      ORB  
   producer      Otto Matic  
   solution date      2019-Jul-14 12:22:05  

Additional Information
 Earth MOID = 1.81405 au 
 Jupiter MOID = 1.91069 au 
 T_jup = 3.140 
[ show covariance matrix ]

Ephemeris | Orbit Diagram | Orbital Elements | Mission Design | Physical Parameters | Discovery Circumstances | Close-Approach Data ]

Physical Parameter Table
Parameter Symbol Value Units Sigma Reference Notes
absolute magnitude H 15.5   n/a MPO434219  

351578 (2005 UB317)          Discovered 2005-Oct-27 by Mt. Lemmon Survey at Mount Lemmon
Reference: 20130127/Numbers.arcLast Updated: 2013-01-31

[ show close-approach data ]
Ephemeris | Orbit Diagram | Orbital Elements | Mission Design | Physical Parameters | Discovery Circumstances | Close-Approach Data ]
ABOUT SSD CREDITS/AWARDS PRIVACY/COPYRIGHT GLOSSARY LINKS
FirstGov
(server date/time)  
NASA Home Page
Site Manager:   Ryan S. Park
Webmaster  Alan B. Chamberlin